Location: Frankfurt+(oder)
(51.7984°N, 12.2168°E)
Time: 14:46:07
(UTC+02:00)

ISS - Pass Details

Date: 22 March 2017
Orbit: 399 x 409 km, 51.6° (Epoch: 30 March)

Event Time Altitude Azimuth Distance (km) Brightness Sun altitude
Exits shadow 03:46:37 15° 139° (SE) 1,194 -1.4 -21.7°
Drops below altitude 10° 03:47:21 10° 133° (SE) 1,473 -0.8 -21.6°
Sets 03:49:30 0° 126° (SE) 2,333 0.3 -21.4°
